QPF
0.04 0.04 0.06 0.07 0.07 0.06 0.04 0.04 0.03 0.02 0.02 0.03 0.02 0.01 0.01 0.02 0.02 0.03 0.03 0.04 0.05 0.04 0.04 0.04 0.04 0.05 0.04 0.04 0.04 0.04 0.04 0.06 0.05 0.03 0.02 0.02 0.02 0.03 0.03 0.02 0.02 0.02 0.02
0.04 0.04 0.05 0.05 0.05 0.04 0.03 0.03 0.02 0.03 0.03 0.02 0.02 0.02 0.02 0.02 0.02 0.03 0.04 0.04 0.04 0.05 0.05 0.05 0.05 0.05 0.05 0.04 0.04 0.04 0.04 0.05 0.05 0.04 0.03 0.02 0.02 0.03 0.03 0.02 0.02 0.01 0.01
0.05 0.08 0.08 0.06 0.04 0.03 0.01 0.01 0.01 0.01 0.02 0.02 0.02 0.01 0.01 0.01 0.02 0.03 0.03 0.03 0.03 0.03 0.03 0.04 0.05 0.06 0.06 0.06 0.05 0.04 0.04 0.03 0.04 0.03 0.02 0.02 0.02 0.02 0.02 0.02 0.02 0.02 0.01
0.04 0.06 0.05 0.04 0.02 0.01 0.01 0.01 0.01 0.01 0.01 0.01 0.01 0.01 0.01 0.01 0.01 0.01 0.02 0.03 0.03 0.03 0.03 0.03 0.04 0.05 0.06 0.06 0.06 0.05 0.04 0.04 0.04 0.04 0.03 0.03 0.03 0.02 0.02 0.02 0.02 0.02 0.01
0.02 0.02 0.02 0.01 0.01 0.00 0.00 0.01 0.01 0.01 0.01 0.01 0.01 0.01 0.01 0.01 0.01 0.02 0.03 0.03 0.04 0.04 0.03 0.03 0.04 0.04 0.04 0.04 0.04 0.04 0.04 0.05 0.04 0.04 0.04 0.03 0.03 0.02 0.02 0.02 0.02 0.02 0.02
0.01 0.01 0.01 0.01 0.01 0.01 0.01 0.01 0.01 0.01 0.01 0.01 0.01 0.01 0.01 0.00 0.00 0.02 0.03 0.03 0.03 0.04 0.04 0.03 0.03 0.03 0.03 0.02 0.02 0.02 0.03 0.04 0.05 0.04 0.04 0.04 0.04 0.03 0.03 0.03 0.03 0.04 0.04
0.02 0.02 0.01 0.01 0.01 0.01 0.00 0.01 0.01 0.01 0.01 0.01 0.01 0.01 0.01 0.01 0.00 0.01 0.01 0.02 0.03 0.03 0.03 0.03 0.03 0.02 0.02 0.03 0.03 0.03 0.02 0.02 0.02 0.03 0.04 0.05 0.05 0.04 0.04 0.04 0.05 0.05 0.05
0.03 0.03 0.02 0.02 0.02 0.01 0.01 0.01 0.01 0.02 0.02 0.01 0.01 0.01 0.01 0.01 0.00 0.00 0.01 0.02 0.02 0.02 0.02 0.03 0.03 0.02 0.01 0.02 0.03 0.04 0.05 0.04 0.03 0.03 0.04 0.05 0.06 0.07 0.05 0.04 0.04 0.04 0.04
0.02 0.03 0.02 0.01 0.01 0.01 0.01 0.01 0.01 0.01 0.01 0.01 0.01 0.01 0.02 0.01 0.00 0.00 0.01 0.02 0.02 0.02 0.01 0.01 0.01 0.01 0.01 0.01 0.02 0.03 0.04 0.04 0.04 0.04 0.04 0.04 0.05 0.05 0.04 0.04 0.05 0.05 0.05
0.02 0.02 0.02 0.01 0.01 0.01 0.01 0.01 0.01 0.01 0.01 0.01 0.01 0.01 0.01 0.01 0.00 0.00 0.01 0.02 0.02 0.01 0.00 0.00 0.00 0.00 0.01 0.01 0.02 0.03 0.03 0.03 0.03 0.04 0.04 0.04 0.05 0.04 0.03 0.04 0.05 0.05 0.05
0.02 0.01 0.01 0.01 0.01 0.01 0.01 0.01 0.01 0.01 0.01 0.01 0.01 0.00 0.00 0.00 0.00 0.00 0.00 0.01 0.01 0.01 0.01 0.01 0.01 0.01 0.01 0.01 0.01 0.02 0.03 0.03 0.03 0.03 0.05 0.06 0.06 0.06 0.04 0.05 0.06 0.05 0.05
0.01 0.01 0.01 0.01 0.00 0.01 0.01 0.01 0.01 0.01 0.01 0.01 0.01 0.00 0.00 0.00 0.00 0.00 0.00 0.00 0.01 0.01 0.01 0.02 0.01 0.01 0.01 0.01 0.01 0.01 0.01 0.01 0.02 0.02 0.03 0.04 0.06 0.06 0.06 0.05 0.05 0.05 0.05
0.01 0.01 0.01 0.01 0.01 0.01 0.01 0.01 0.01 0.01 0.01 0.00 0.00 0.00 0.00 0.00 0.00 0.00 0.00 0.00 0.01 0.01 0.02 0.02 0.01 0.01 0.01 0.01 0.01 0.01 0.01 0.01 0.02 0.02 0.02 0.03 0.04 0.04 0.04 0.05 0.05 0.04 0.04
0.01 0.01 0.01 0.01 0.01 0.01 0.01 0.01 0.00 0.00 0.00 0.00 0.00 0.00 0.00 0.00 0.00 0.00 0.01 0.00 0.00 0.00 0.01 0.02 0.01 0.01 0.01 0.01 0.01 0.01 0.01 0.01 0.01 0.01 0.01 0.02 0.03 0.04 0.04 0.03 0.03 0.02 0.02
0.02 0.01 0.01 0.01 0.01 0.00 0.00 0.00 0.00 0.00 0.00 0.00 0.00 0.00 0.00 0.00 0.00 0.00 0.00 0.00 0.00 0.00 0.00 0.01 0.01 0.01 0.01 0.01 0.01 0.01 0.01 0.01 0.01 0.01 0.01 0.02 0.03 0.03 0.03 0.03 0.03 0.03 0.02
0.02 0.02 0.01 0.01 0.01 0.00 0.00 0.00 0.00 0.00 0.00 0.00 0.00 0.00 0.00 0.00 0.00 0.00 0.00 0.00 0.00 0.00 0.00 0.00 0.01 0.00 0.01 0.01 0.01 0.00 0.00 0.00 0.01 0.01 0.01 0.02 0.03 0.03 0.02 0.02 0.02 0.02 0.02
0.01 0.01 0.01 0.00 0.00 0.00 0.00 0.00 0.00 0.00 0.00 0.00 0.00 0.00 0.00 0.00 0.00 0.00 0.00 0.00 0.00 0.00 0.00 0.01 0.01 0.01 0.01 0.00 0.00 0.00 0.00 0.00 0.01 0.01 0.01 0.01 0.02 0.02 0.02 0.02 0.02 0.02 0.02
0.01 0.00 0.00 0.00 0.00 0.00 0.00 0.00 0.00 0.00 0.00 0.00 0.00 0.00 0.00 0.00 0.00 0.00 0.00 0.00 0.00 0.00 0.00 0.00 0.00 0.00 0.00 0.00 0.00 0.00 0.01 0.01 0.01 0.01 0.01 0.01 0.01 0.01 0.01 0.02 0.02 0.02 0.02
0.00 0.00 0.00 0.00 0.00 0.00 0.00 0.00 0.00 0.00 0.00 0.00 0.00 0.01 0.01 0.00 0.00 0.00 0.00 0.00 0.00 0.00 0.00 0.00 0.00 0.00 0.00 0.00 0.01 0.01 0.01 0.01 0.01 0.01 0.01 0.01 0.01 0.01 0.02 0.02 0.02 0.01 0.01
0.00 0.00 0.00 0.00 0.00 0.00 0.00 0.00 0.00 0.00 0.00 0.01 0.01 0.01 0.01 0.01 0.01 0.01 0.00 0.01 0.01 0.00 0.00 0.01 0.01 0.01 0.01 0.01 0.01 0.01 0.01 0.01 0.01 0.01 0.01 0.01 0.01 0.02 0.02 0.02 0.02 0.01 0.01
0.00 0.00 0.00 0.00 0.00 0.00 0.00 0.00 0.00 0.00 0.00 0.00 0.01 0.01 0.01 0.01 0.01 0.01 0.01 0.01 0.00 0.00 0.00 0.00 0.01 0.01 0.01 0.01 0.01 0.01 0.01 0.01 0.01 0.01 0.01 0.01 0.01 0.01 0.01 0.01 0.02 0.02 0.01
0.00 0.00 0.00 0.00 0.00 0.00 0.00 0.00 0.00 0.00 0.00 0.00 0.00 0.00 0.01 0.01 0.01 0.02 0.01 0.01 0.01 0.00 0.00 0.01 0.01 0.01 0.01 0.01 0.00 0.01 0.01 0.01 0.01 0.01 0.01 0.01 0.01 0.01 0.01 0.01 0.02 0.02 0.02
0.00 0.00 0.00 0.00 0.00 0.00 0.00 0.00 0.00 0.00 0.00 0.00 0.00 0.01 0.01 0.01 0.02 0.02 0.02 0.01 0.01 0.01 0.01 0.01 0.01 0.01 0.01 0.01 0.01 0.01 0.01 0.01 0.01 0.01 0.01 0.01 0.01 0.01 0.01 0.02 0.02 0.03 0.03
0.00 0.00 0.00 0.00 0.00 0.00 0.00 0.00 0.00 0.00 0.00 0.00 0.00 0.01 0.01 0.01 0.01 0.01 0.02 0.02 0.02 0.02 0.01 0.02 0.02 0.01 0.01 0.01 0.01 0.01 0.01 0.01 0.01 0.01 0.01 0.02 0.02 0.02 0.02 0.02 0.03 0.03 0.02
0.00 0.00 0.00 0.00 0.00 0.00 0.00 0.00 0.00 0.00 0.00 0.00 0.00 0.00 0.01 0.01 0.01 0.01 0.01 0.02 0.02 0.02 0.02 0.02 0.02 0.02 0.02 0.02 0.02 0.03 0.03 0.03 0.02 0.02 0.01 0.01 0.01 0.02 0.02 0.02 0.02 0.02 0.03
0.00 0.00 0.00 0.00 0.00 0.00 0.00 0.00 0.00 0.00 0.00 0.00 0.00 0.00 0.00 0.00 0.01 0.01 0.01 0.01 0.01 0.01 0.01 0.01 0.01 0.01 0.02 0.02 0.01 0.01 0.01 0.02 0.02 0.02 0.02 0.02 0.01 0.01 0.02 0.02 0.02 0.02 0.02
MSLP
1020.19 1019.98 1019.85 1019.80 1019.79 1019.80 1019.79 1019.73 1019.62 1019.44 1019.21 1018.94 1018.66 1018.38 1018.12 1017.90 1017.71 1017.53 1017.35 1017.15 1016.88 1016.55 1016.15 1015.68 1015.19 1014.69 1014.24 1013.90 1013.71 1013.68 1013.84 1014.16 1014.61 1015.16 1015.73 1016.27 1016.74 1017.08 1017.29 1017.37 1017.32 1017.19 1017.02
1019.95 1019.76 1019.65 1019.61 1019.63 1019.66 1019.67 1019.63 1019.52 1019.33 1019.07 1018.76 1018.41 1018.07 1017.76 1017.48 1017.25 1017.06 1016.88 1016.69 1016.46 1016.16 1015.78 1015.33 1014.82 1014.30 1013.82 1013.43 1013.18 1013.11 1013.24 1013.56 1014.05 1014.65 1015.31 1015.97 1016.55 1017.02 1017.35 1017.55 1017.61 1017.57 1017.48
1019.75 1019.59 1019.51 1019.49 1019.53 1019.58 1019.60 1019.58 1019.47 1019.28 1019.00 1018.65 1018.26 1017.86 1017.48 1017.15 1016.87 1016.65 1016.46 1016.28 1016.06 1015.78 1015.42 1014.98 1014.48 1013.94 1013.43 1013.00 1012.71 1012.60 1012.71 1013.02 1013.52 1014.16 1014.89 1015.63 1016.31 1016.89 1017.34 1017.64 1017.80 1017.85 1017.84
1019.62 1019.50 1019.44 1019.45 1019.50 1019.56 1019.59 1019.57 1019.47 1019.27 1018.98 1018.60 1018.18 1017.73 1017.30 1016.91 1016.59 1016.32 1016.10 1015.90 1015.68 1015.41 1015.06 1014.64 1014.14 1013.61 1013.09 1012.64 1012.32 1012.18 1012.26 1012.55 1013.05 1013.71 1014.47 1015.26 1016.01 1016.67 1017.20 1017.59 1017.83 1017.97 1018.02
1019.56 1019.49 1019.46 1019.47 1019.51 1019.56 1019.59 1019.57 1019.47 1019.27 1018.98 1018.60 1018.16 1017.68 1017.21 1016.77 1016.39 1016.07 1015.80 1015.56 1015.32 1015.04 1014.70 1014.29 1013.81 1013.30 1012.78 1012.34 1012.01 1011.86 1011.91 1012.19 1012.66 1013.31 1014.07 1014.88 1015.66 1016.36 1016.94 1017.38 1017.68 1017.87 1017.97
1019.58 1019.53 1019.50 1019.50 1019.51 1019.54 1019.54 1019.51 1019.42 1019.24 1018.96 1018.60 1018.16 1017.68 1017.18 1016.70 1016.27 1015.89 1015.56 1015.27 1014.99 1014.69 1014.35 1013.95 1013.50 1013.02 1012.54 1012.12 1011.81 1011.66 1011.70 1011.95 1012.40 1013.01 1013.74 1014.52 1015.29 1015.99 1016.57 1017.03 1017.36 1017.57 1017.70
1019.63 1019.58 1019.53 1019.48 1019.45 1019.43 1019.41 1019.36 1019.27 1019.12 1018.89 1018.56 1018.16 1017.69 1017.20 1016.70 1016.22 1015.78 1015.39 1015.03 1014.71 1014.38 1014.03 1013.66 1013.24 1012.81 1012.39 1012.02 1011.74 1011.61 1011.65 1011.88 1012.29 1012.85 1013.52 1014.24 1014.95 1015.61 1016.16 1016.60 1016.92 1017.14 1017.27
1019.65 1019.58 1019.47 1019.36 1019.27 1019.19 1019.13 1019.08 1019.01 1018.90 1018.72 1018.47 1018.13 1017.71 1017.24 1016.75 1016.24 1015.76 1015.32 1014.91 1014.53 1014.18 1013.83 1013.47 1013.10 1012.73 1012.38 1012.08 1011.87 1011.77 1011.82 1012.03 1012.39 1012.88 1013.46 1014.09 1014.72 1015.30 1015.79 1016.18 1016.47 1016.66 1016.78
1019.60 1019.48 1019.31 1019.13 1018.96 1018.82 1018.73 1018.67 1018.63 1018.58 1018.48 1018.32 1018.07 1017.74 1017.33 1016.86 1016.37 1015.87 1015.38 1014.93 1014.52 1014.14 1013.78 1013.45 1013.13 1012.83 1012.56 1012.34 1012.20 1012.15 1012.21 1012.40 1012.71 1013.12 1013.61 1014.13 1014.65 1015.12 1015.53 1015.85 1016.08 1016.23 1016.32
1019.47 1019.28 1019.03 1018.77 1018.53 1018.35 1018.23 1018.18 1018.18 1018.19 1018.19 1018.14 1018.01 1017.78 1017.46 1017.05 1016.59 1016.09 1015.59 1015.12 1014.68 1014.28 1013.94 1013.63 1013.36 1013.13 1012.94 1012.80 1012.73 1012.72 1012.80 1012.97 1013.23 1013.55 1013.94 1014.34 1014.74 1015.11 1015.42 1015.66 1015.82 1015.93 1015.98
1019.25 1018.99 1018.67 1018.34 1018.04 1017.82 1017.69 1017.66 1017.70 1017.80 1017.91 1017.97 1017.97 1017.86 1017.64 1017.31 1016.90 1016.43 1015.94 1015.46 1015.00 1014.60 1014.26 1013.98 1013.76 1013.59 1013.47 1013.40 1013.39 1013.42 1013.51 1013.66 1013.87 1014.11 1014.39 1014.68 1014.96 1015.22 1015.43 1015.59 1015.69 1015.75 1015.78
1018.98 1018.66 1018.28 1017.90 1017.56 1017.31 1017.18 1017.17 1017.27 1017.44 1017.65 1017.83 1017.95 1017.95 1017.84 1017.61 1017.26 1016.83 1016.36 1015.88 1015.43 1015.02 1014.69 1014.43 1014.24 1014.11 1014.05 1014.04 1014.07 1014.13 1014.23 1014.36 1014.51 1014.69 1014.87 1015.06 1015.23 1015.39 1015.51 1015.60 1015.65 1015.68 1015.67
1018.68 1018.32 1017.91 1017.50 1017.14 1016.89 1016.76 1016.78 1016.92 1017.16 1017.44 1017.72 1017.93 1018.04 1018.02 1017.87 1017.59 1017.20 1016.75 1016.28 1015.83 1015.43 1015.09 1014.84 1014.67 1014.58 1014.55 1014.57 1014.63 1014.71 1014.81 1014.92 1015.03 1015.14 1015.25 1015.35 1015.44 1015.52 1015.58 1015.61 1015.63 1015.63 1015.61
1018.40 1018.03 1017.61 1017.19 1016.83 1016.59 1016.47 1016.51 1016.68 1016.95 1017.28 1017.62 1017.90 1018.07 1018.12 1018.02 1017.79 1017.44 1017.02 1016.55 1016.10 1015.69 1015.35 1015.09 1014.92 1014.84 1014.83 1014.87 1014.94 1015.03 1015.13 1015.22 1015.30 1015.37 1015.42 1015.47 1015.50 1015.52 1015.53 1015.54 1015.53 1015.52 1015.51
1018.17 1017.80 1017.39 1016.99 1016.65 1016.41 1016.30 1016.34 1016.51 1016.79 1017.13 1017.48 1017.78 1017.99 1018.07 1018.00 1017.79 1017.46 1017.05 1016.59 1016.13 1015.70 1015.35 1015.08 1014.90 1014.82 1014.80 1014.85 1014.93 1015.02 1015.12 1015.20 1015.26 1015.30 1015.32 1015.33 1015.33 1015.32 1015.31 1015.31 1015.30 1015.30 1015.30
1017.98 1017.64 1017.26 1016.89 1016.56 1016.33 1016.22 1016.24 1016.39 1016.64 1016.95 1017.27 1017.55 1017.74 1017.81 1017.75 1017.54 1017.21 1016.80 1016.33 1015.86 1015.42 1015.05 1014.77 1014.58 1014.48 1014.46 1014.50 1014.58 1014.67 1014.77 1014.85 1014.91 1014.94 1014.95 1014.95 1014.94 1014.92 1014.91 1014.91 1014.91 1014.93 1014.94
1017.81 1017.51 1017.17 1016.83 1016.52 1016.29 1016.16 1016.15 1016.25 1016.44 1016.69 1016.95 1017.17 1017.32 1017.35 1017.26 1017.04 1016.71 1016.28 1015.81 1015.33 1014.89 1014.50 1014.20 1014.00 1013.89 1013.86 1013.90 1013.98 1014.08 1014.18 1014.26 1014.32 1014.36 1014.38 1014.38 1014.37 1014.36 1014.36 1014.37 1014.39 1014.42 1014.45
1017.64 1017.38 1017.07 1016.75 1016.45 1016.22 1016.06 1016.01 1016.04 1016.16 1016.33 1016.50 1016.65 1016.74 1016.72 1016.59 1016.35 1016.00 1015.58 1015.11 1014.63 1014.18 1013.80 1013.50 1013.29 1013.17 1013.14 1013.18 1013.26 1013.36 1013.47 1013.56 1013.63 1013.68 1013.71 1013.71 1013.71 1013.71 1013.72 1013.74 1013.77 1013.81 1013.86
1017.41 1017.18 1016.91 1016.61 1016.32 1016.07 1015.89 1015.78 1015.75 1015.78 1015.86 1015.95 1016.02 1016.04 1015.97 1015.81 1015.55 1015.20 1014.78 1014.32 1013.86 1013.43 1013.06 1012.77 1012.56 1012.45 1012.42 1012.46 1012.55 1012.66 1012.77 1012.87 1012.95 1013.01 1013.04 1013.06 1013.06 1013.07 1013.07 1013.09 1013.12 1013.16 1013.20
1017.11 1016.90 1016.65 1016.37 1016.09 1015.83 1015.61 1015.45 1015.35 1015.32 1015.32 1015.33 1015.33 1015.29 1015.19 1015.00 1014.74 1014.39 1014.00 1013.57 1013.14 1012.74 1012.39 1012.12 1011.94 1011.84 1011.82 1011.86 1011.95 1012.06 1012.18 1012.28 1012.37 1012.42 1012.46 1012.47 1012.47 1012.47 1012.47 1012.47 1012.49 1012.51 1012.53
1016.71 1016.53 1016.30 1016.03 1015.75 1015.48 1015.24 1015.04 1014.89 1014.79 1014.73 1014.68 1014.63 1014.55 1014.42 1014.23 1013.97 1013.66 1013.29 1012.90 1012.52 1012.16 1011.85 1011.61 1011.45 1011.37 1011.36 1011.41 1011.50 1011.61 1011.72 1011.82 1011.90 1011.95 1011.97 1011.97 1011.95 1011.93 1011.91 1011.89 1011.88 1011.87 1011.86
1016.24 1016.08 1015.86 1015.61 1015.33 1015.06 1014.80 1014.58 1014.39 1014.25 1014.14 1014.05 1013.96 1013.85 1013.71 1013.53 1013.29 1013.00 1012.68 1012.34 1012.00 1011.69 1011.43 1011.22 1011.09 1011.03 1011.03 1011.08 1011.17 1011.27 1011.37 1011.46 1011.52 1011.55 1011.55 1011.53 1011.49 1011.44 1011.39 1011.34 1011.30 1011.25 1011.20
1015.71 1015.57 1015.37 1015.14 1014.87 1014.60 1014.34 1014.10 1013.88 1013.71 1013.57 1013.45 1013.33 1013.21 1013.07 1012.89 1012.68 1012.43 1012.15 1011.85 1011.56 1011.29 1011.06 1010.89 1010.77 1010.72 1010.73 1010.78 1010.86 1010.95 1011.03 1011.10 1011.14 1011.15 1011.13 1011.09 1011.02 1010.95 1010.87 1010.78 1010.70 1010.62 1010.54
1015.14 1015.02 1014.85 1014.64 1014.39 1014.13 1013.87 1013.61 1013.39 1013.19 1013.02 1012.87 1012.74 1012.61 1012.46 1012.29 1012.09 1011.86 1011.61 1011.35 1011.09 1010.86 1010.66 1010.50 1010.40 1010.36 1010.36 1010.41 1010.48 1010.55 1010.62 1010.67 1010.70 1010.69 1010.65 1010.58 1010.49 1010.39 1010.29 1010.18 1010.07 1009.97 1009.85
1014.53 1014.45 1014.31 1014.13 1013.90 1013.65 1013.38 1013.12 1012.88 1012.67 1012.47 1012.30 1012.15 1011.99 1011.83 1011.66 1011.46 1011.24 1011.01 1010.77 1010.54 1010.32 1010.14 1010.00 1009.91 1009.86 1009.87 1009.90 1009.96 1010.02 1010.08 1010.11 1010.13 1010.11 1010.05 1009.97 1009.87 1009.76 1009.63 1009.51 1009.38 1009.26 1009.13
1013.89 1013.84 1013.74 1013.57 1013.37 1013.12 1012.86 1012.60 1012.34 1012.10 1011.88 1011.68 1011.50 1011.33 1011.15 1010.96 1010.76 1010.54 1010.32 1010.09 1009.86 1009.66 1009.48 1009.35 1009.26 1009.21 1009.21 1009.24 1009.29 1009.34 1009.39 1009.42 1009.43 1009.40 1009.35 1009.26 1009.16 1009.03 1008.91 1008.77 1008.63 1008.50 1008.36
Thickness
5638 5634 5629 5625 5621 5617 5613 5609 5606 5603 5600 5599 5597 5595 5593 5592 5590 5589 5589 5588 5587 5586 5586 5586 5585 5585 5586 5587 5588 5588 5588 5587 5587 5588 5589 5589 5588 5589 5591 5593 5595 5597 5599
5633 5628 5623 5618 5615 5611 5608 5604 5601 5598 5596 5594 5592 5590 5588 5587 5585 5584 5584 5583 5582 5580 5580 5579 5579 5580 5580 5580 5581 5582 5582 5582 5582 5581 5583 5583 5583 5584 5585 5587 5589 5592 5594
5628 5623 5617 5614 5610 5606 5602 5599 5597 5595 5592 5590 5588 5586 5584 5582 5581 5580 5579 5577 5576 5575 5574 5573 5573 5573 5573 5574 5575 5576 5577 5578 5578 5577 5578 5578 5579 5580 5581 5583 5585 5586 5589
5624 5619 5614 5610 5606 5602 5599 5596 5593 5591 5588 5586 5583 5581 5579 5578 5577 5575 5574 5572 5571 5570 5569 5568 5568 5568 5568 5568 5569 5570 5571 5571 5572 5573 5574 5574 5574 5575 5577 5579 5580 5582 5585
5620 5616 5611 5607 5603 5599 5596 5592 5590 5587 5585 5582 5579 5577 5576 5574 5571 5569 5568 5568 5567 5566 5565 5564 5563 5561 5560 5560 5563 5564 5565 5566 5568 5569 5570 5571 5571 5570 5573 5575 5577 5579 5581
5617 5613 5609 5605 5600 5596 5593 5589 5586 5583 5581 5578 5576 5575 5573 5571 5564 5561 5561 5563 5563 5562 5561 5560 5559 5559 5557 5555 5556 5557 5558 5560 5563 5563 5565 5566 5566 5567 5568 5571 5572 5574 5576
5615 5611 5607 5603 5599 5595 5591 5587 5583 5580 5577 5575 5573 5571 5570 5566 5561 5558 5557 5558 5560 5559 5557 5556 5556 5556 5554 5555 5554 5553 5554 5554 5554 5557 5560 5561 5563 5564 5564 5567 5568 5570 5572
5613 5609 5605 5601 5597 5593 5589 5585 5581 5578 5575 5573 5571 5569 5567 5564 5559 5556 5555 5556 5557 5557 5555 5554 5553 5552 5552 5550 5552 5554 5554 5554 5554 5554 5556 5558 5559 5560 5561 5563 5564 5566 5568
5611 5606 5603 5600 5596 5592 5588 5583 5580 5577 5574 5572 5570 5568 5565 5562 5558 5555 5552 5556 5557 5555 5554 5552 5550 5550 5545 5544 5548 5550 5552 5553 5552 5551 5552 5553 5553 5555 5556 5558 5561 5565 5567
5609 5605 5602 5598 5595 5591 5587 5583 5581 5577 5574 5572 5571 5568 5565 5563 5558 5554 5551 5556 5557 5556 5554 5552 5547 5545 5543 5542 5546 5548 5550 5551 5552 5553 5552 5552 5553 5554 5554 5556 5560 5563 5566
5608 5604 5601 5597 5594 5591 5586 5583 5580 5578 5575 5573 5571 5569 5566 5563 5559 5555 5552 5553 5555 5555 5555 5553 5550 5544 5542 5542 5542 5545 5546 5547 5549 5552 5553 5554 5555 5555 5556 5557 5558 5560 5562
5607 5603 5600 5597 5594 5592 5587 5583 5581 5578 5576 5575 5573 5571 5570 5566 5562 5558 5554 5551 5549 5551 5551 5551 5549 5544 5542 5542 5543 5544 5544 5544 5549 5551 5553 5554 5555 5555 5555 5556 5556 5557 5557
5606 5602 5599 5596 5593 5591 5587 5585 5583 5581 5580 5579 5577 5575 5573 5571 5566 5560 5556 5553 5550 5550 5551 5548 5546 5545 5544 5546 5545 5544 5544 5548 5550 5551 5552 5554 5555 5555 5555 5554 5555 5555 5555
5605 5602 5599 5597 5594 5591 5588 5588 5586 5584 5582 5581 5579 5577 5575 5573 5570 5566 5563 5559 5554 5554 5554 5552 5549 5548 5548 5548 5549 5550 5551 5552 5553 5553 5554 5555 5555 5555 5555 5555 5555 5556 5557
5605 5602 5600 5599 5597 5593 5591 5589 5587 5584 5582 5578 5578 5577 5575 5573 5568 5561 5560 5561 5559 5557 5553 5556 5558 5558 5558 5558 5557 5557 5556 5555 5555 5554 5555 5555 5555 5555 5556 5556 5555 5555 5556
5606 5603 5603 5601 5599 5597 5594 5592 5587 5583 5580 5576 5573 5570 5572 5569 5564 5561 5559 5556 5554 5551 5552 5560 5561 5561 5560 5560 5559 5559 5559 5558 5557 5556 5555 5555 5555 5555 5555 5556 5555 5555 5556
5607 5605 5605 5604 5602 5600 5597 5594 5592 5588 5583 5579 5576 5573 5569 5567 5565 5563 5561 5559 5557 5554 5558 5564 5564 5564 5563 5562 5561 5561 5561 5560 5558 5557 5556 5555 5555 5555 5555 5555 5555 5555 5556
5610 5607 5605 5605 5604 5602 5600 5598 5596 5593 5591 5590 5584 5577 5574 5571 5568 5566 5563 5561 5566 5564 5567 5568 5568 5567 5566 5565 5565 5564 5563 5562 5560 5559 5558 5557 5556 5556 5556 5555 5555 5555 5555
5613 5612 5609 5607 5606 5605 5603 5601 5599 5597 5595 5593 5592 5587 5579 5575 5572 5569 5566 5570 5574 5575 5574 5573 5572 5571 5569 5568 5567 5566 5564 5563 5562 5560 5559 5557 5557 5556 5556 5555 5555 5553 5552
5615 5610 5607 5608 5608 5607 5605 5602 5601 5599 5597 5595 5593 5591 5588 5584 5583 5580 5576 5576 5577 5577 5577 5576 5574 5573 5572 5570 5569 5567 5566 5564 5563 5562 5560 5558 5558 5557 5556 5554 5554 5554 5553
5620 5616 5607 5609 5610 5608 5606 5604 5602 5600 5599 5597 5595 5593 5585 5586 5586 5585 5584 5582 5580 5579 5578 5577 5575 5574 5574 5571 5570 5570 5567 5566 5564 5562 5561 5560 5558 5557 5555 5554 5553 5553 5553
5621 5620 5616 5613 5611 5609 5607 5605 5604 5602 5600 5598 5596 5595 5587 5587 5589 5588 5586 5584 5583 5581 5580 5577 5576 5576 5574 5572 5570 5568 5567 5565 5564 5562 5560 5559 5558 5557 5556 5554 5553 5552 5551
5622 5620 5618 5615 5612 5607 5606 5606 5604 5602 5600 5599 5597 5595 5593 5591 5590 5588 5586 5584 5583 5581 5580 5578 5575 5575 5574 5571 5569 5566 5565 5563 5562 5560 5557 5556 5556 5555 5554 5552 5550 5548 5548
5624 5621 5619 5616 5613 5611 5609 5607 5605 5603 5601 5599 5597 5595 5593 5591 5589 5587 5586 5584 5583 5581 5579 5577 5575 5574 5572 5569 5567 5566 5563 5560 5557 5556 5554 5553 5552 5552 5552 5550 5548 5547 5546
5625 5622 5620 5617 5614 5612 5610 5607 5604 5602 5600 5598 5596 5594 5593 5591 5589 5587 5586 5584 5582 5580 5578 5576 5574 5572 5570 5567 5564 5562 5558 5553 5550 5548 5547 5548 5548 5547 5546 5545 5545 5544 5543
5625 5622 5620 5618 5615 5612 5609 5605 5603 5601 5599 5597 5595 5593 5591 5589 5587 5586 5584 5582 5580 5578 5576 5574 5572 5570 5567 5564 5561 5557 5552 5548 5544 5541 5539 5541 5542 5542 5541 5540 5540 5539 5538